This demonstration page uses our WeatherBlox Daily Observations layout. Learn more.

Left ArrowRight Arrow

Hourly Observations for May 16, 2021

Temp ( °F °C ) Dew Point ( °F °C ) Humidity (%) Winds ( mph kmh ) Pressure ( in mb ) Visibility ( mi km ) Precip ( " mm )
12:53 am 00:53 Clear 56 13.3 53 11.7 90 90 Calm 30.20 1023 10 16 0.00 0.00
1:53 am 01:53 Clear 55 12.8 52 11.1 90 90 Calm 30.18 1022 10 16 0.00 0.00
2:53 am 02:53 Clear 54 12.2 51 10.6 90 90 Calm 30.18 1022 10 16 0.00 0.00
3:53 am 03:53 Clear 54 12.2 51 10.6 90 90 Calm 30.19 1022 10 16 0.00 0.00
4:53 am 04:53 Clear 53 11.7 51 10.6 93 93 Calm 30.22 1023 10 16 0.00 0.00
5:53 am 05:53 Clear 52 11.1 50 10 93 93 Calm 30.22 1023 10 16 0.00 0.00
6:53 am 06:53 Sunny 52 11.1 50 10 93 93 Calm 30.24 1024 10 16 0.00 0.00
7:53 am 07:53 Sunny 55 12.8 53 11.7 93 93 Calm 30.26 1025 10 16 0.00 0.00
8:53 am 08:53 Sunny 60 15.6 53 11.7 78 78 Calm 30.27 1025 10 16 0.00 0.00
9:53 am 09:53 Sunny 67 19.4 46 7.8 47 47 SW 7 11 30.27 1025 10 16 0.00 0.00
10:53 am 10:53 Sunny 70 21.1 45 7.2 41 41 SW 10 17 30.28 1025 10 16 0.00 0.00
11:53 am 11:53 Sunny 74 23.3 45 7.2 36 36 SW 8 13 30.25 1025 10 16 0.00 0.00
12:53 pm 12:53 Sunny 75 23.9 45 7.2 34 34 VRB 5 7 30.25 1024 10 16 0.00 0.00
1:53 pm 13:53 Sunny 77 25 45 7.2 32 32 WSW 10 17 30.23 1024 10 16 0.00 0.00
2:53 pm 14:53 Sunny 77 25 46 7.8 33 33 S 8 13 30.20 1023 10 16 0.00 0.00
3:53 pm 15:53 Mostly Sunny 78 25.6 45 7.2 31 31 W 6 9 30.17 1022 10 16 0.00 0.00
4:53 pm 16:53 Sunny 77 25 45 7.2 32 32 undefined N/A 30.16 1021 10 16 0.00 0.00
5:53 pm 17:53 Partly Cloudy 78 25.6 46 7.8 32 32 SSW 8 13 30.15 1021 10 16 0.00 0.00
6:53 pm 18:53 Sunny 78 25.6 45 7.2 31 31 S 3 6 30.15 1021 10 16 0.00 0.00
7:53 pm 19:53 Sunny 76 24.4 48 8.9 37 37 SSW 3 6 30.15 1021 10 16 0.00 0.00
8:53 pm 20:53 Mostly Clear 73 22.8 50 10 44 44 S 3 6 30.16 1021 10 16 0.00 0.00
9:53 pm 21:53 Cloudy 66 18.9 53 11.7 63 63 Calm 30.17 1022 10 16 0.00 0.00
10:53 pm 22:53 Clear 62 16.7 54 12.2 75 75 Calm 30.18 1022 10 16 0.00 0.00
11:53 pm 23:53 Clear 59 15 55 12.8 87 87 Calm 30.18 1022 10 16 0.00 0.00

Powered by AerisWeather